CW9825 Weather Reports


Display with metric or nautical units.
time (UTC)temp
F
wind
direction
speed
MPH
gust
MPH
rain 1hr
in
rain 24hr
in
rain mn
in
humidity
%
barometer
mb
20260902192526 82 63 3.0 6.0 0.00 0.00 0.00 48 1012.7
20260902192026 81 69 1.0 6.0 0.00 0.00 0.00 47 1012.7
20260902191525 81 108 3.0 6.0 0.00 0.00 0.00 48 1012.8
20260902191028 81 5 1.0 4.0 0.00 0.00 0.00 46 1012.9
20260902190524 81 11 2.0 5.0 0.00 0.00 0.00 49 1012.9
20260902190033 81 65 2.0 8.0 0.00 0.00 0.00 48 1013.1
20260902185523 82 78 3.0 8.0 0.00 0.00 0.00 49 1013.2
20260902185024 81 355 3.0 6.0 0.00 0.00 0.00 51 1013.2
20260902184521 81 101 2.0 6.0 0.00 0.00 0.00 51 1013.1
20260902184020 81 61 2.0 9.0 0.00 0.00 0.00 51 1013.2
20260902183520 82 59 3.0 9.0 0.00 0.00 0.00 50 1013.2
20260902183019 81 331 4.0 7.0 0.00 0.00 0.00 51 1013.2
20260902182521 80 45 2.0 7.0 0.00 0.00 0.00 52 1013.3
20260902182017 80 51 3.0 8.0 0.00 0.00 0.00 52 1013.4
20260902181517 81 101 3.0 10.0 0.00 0.00 0.00 51 1013.4
20260902181016 80 92 5.0 10.0 0.00 0.00 0.00 52 1013.5
20260902180516 80 5 3.0 9.0 0.00 0.00 0.00 53 1013.5
20260902180022 80 340 2.0 9.0 0.00 0.00 0.00 52 1013.5
20260902175515 80 34 3.0 9.0 0.00 0.00 0.00 52 1013.5
20260902175014 80 59 3.0 6.0 0.00 0.00 0.00 51 1013.6
20260902174516 80 346 2.0 9.0 0.00 0.00 0.00 54 1013.5
20260902174012 79 86 4.0 9.0 0.00 0.00 0.00 53 1013.6
20260902173513 80 90 3.0 9.0 0.00 0.00 0.00 55 1013.6
20260902173012 79 92 3.0 9.0 0.00 0.00 0.00 54 1013.7
20260902172515 79 78 4.0 9.0 0.00 0.00 0.00 53 1013.7
20260902172010 80 42 5.0 9.0 0.00 0.00 0.00 54 1013.7
20260902171509 79 28 4.0 8.0 0.00 0.00 0.00 55 1013.7
20260902171008 79 96 3.0 11.0 0.00 0.00 0.00 55 1013.6
20260902170505 78 57 4.0 11.0 0.00 0.00 0.00 57 1013.6
20260902170005 77 61 3.0 7.0 0.00 0.00 0.00 60 1013.7
20260902165505 77 61 3.0 8.0 0.00 0.00 0.00 58 1013.7
20260902165005 77 53 3.0 8.0 0.00 0.00 0.00 57 1013.6
20260902164504 77 16 3.0 6.0 0.00 0.00 0.00 58 1013.7
20260902164004 78 38 4.0 8.0 0.00 0.00 0.00 58 1013.8
20260902163503 77 55 2.0 8.0 0.00 0.00 0.00 60 1013.8
20260902163002 77 61 3.0 6.0 0.00 0.00 0.00 59 1013.7
20260902162501 76 19 3.0 10.0 0.00 0.00 0.00 61 1013.7
20260902162001 76 14 3.0 10.0 0.00 0.00 0.00 60 1013.6
20260902161501 75 26 2.0 7.0 0.00 0.00 0.00 62 1013.7
20260902161001 75 69 3.0 8.0 0.00 0.00 0.00 61 1013.6
20260902160600 76 338 3.0 10.0 0.00 0.00 0.00 59 1013.6
20260902160059 77 33 3.0 10.0 0.00 0.00 0.00 61 1013.6
20260902155558 76 20 2.0 5.0 0.00 0.00 0.00 62 1013.5
20260902155056 75 74 1.0 6.0 0.00 0.00 0.00 63 1013.5
20260902154555 75 64 3.0 5.0 0.00 0.00 0.00 65 1013.6
20260902154054 74 45 1.0 5.0 0.00 0.00 0.00 64 1013.8
20260902153553 74 15 2.0 4.0 0.00 0.00 0.00 64 1013.7
20260902153053 74 61 1.0 4.0 0.00 0.00 0.00 66 1013.6
20260902152550 73 101 0.0 0.0 0.00 0.00 0.00 67 1013.7
20260902152051 72 99 0.0 0.0 0.00 0.00 0.00 68 1013.7
20260902151548 72 94 0.0 0.0 0.00 0.00 0.00 70 1013.8
20260902151046 72 94 0.0 0.0 0.00 0.00 0.00 69 1013.9
20260902150544 71 95 0.0 0.0 0.00 0.00 0.00 69 1014.0
20260902150044 71 95 0.0 0.0 0.00 0.00 0.00 70 1014.1
20260902145543 71 95 0.0 0.0 0.00 0.00 0.00 69 1014.1
20260902145043 71 95 0.0 0.0 0.00 0.00 0.00 71 1014.1
20260902144541 70 95 0.0 0.0 0.00 0.00 0.00 72 1014.1
20260902144040 70 95 0.0 0.0 0.00 0.00 0.00 72 1014.1
20260902143539 69 95 0.0 2.0 0.00 0.00 0.00 73 1014.1
20260902143038 69 95 0.0 3.0 0.00 0.00 0.00 73 1014.1
20260902142537 69 95 0.0 3.0 0.00 0.00 0.00 73 1014.1
20260902142036 68 105 1.0 3.0 0.00 0.00 0.00 73 1014.2
20260902141545 68 110 1.0 3.0 0.00 0.00 0.00 73 1014.2
20260902141035 68 104 0.0 3.0 0.00 0.00 0.00 74 1014.3
20260902140534 68 103 0.0 3.0 0.00 0.00 0.00 74 1014.3
20260902140034 67 104 0.0 3.0 0.00 0.00 0.00 74 1014.3
20260902135533 67 103 0.0 2.0 0.00 0.00 0.00 74 1014.4
20260902135032 67 103 1.0 3.0 0.00 0.00 0.00 74 1014.4
20260902134534 66 103 1.0 3.0 0.00 0.00 0.00 74 1014.5
20260902134031 66 105 0.0 3.0 0.00 0.00 0.00 74 1014.4
20260902133535 66 105 1.0 3.0 0.00 0.00 0.00 74 1014.3
20260902133032 66 81 1.0 4.0 0.00 0.00 0.00 74 1014.3
20260902132532 66 81 1.0 4.0 0.00 0.00 0.00 74 1014.3
20260902132029 66 55 1.0 4.0 0.00 0.00 0.00 74 1014.2
20260902131529 66 49 0.0 3.0 0.00 0.00 0.00 76 1014.2
20260902131029 65 49 1.0 3.0 0.00 0.00 0.00 77 1014.3
20260902130529 65 53 1.0 3.0 0.00 0.00 0.00 77 1014.2
20260902130033 64 19 1.0 3.0 0.00 0.00 0.00 79 1014.3
20260902125528 63 17 0.0 2.0 0.00 0.00 0.00 80 1014.4
20260902125028 63 12 0.0 4.0 0.00 0.00 0.00 81 1014.4
20260902124528 63 12 1.0 4.0 0.00 0.00 0.00 82 1014.2
20260902124026 62 14 0.0 4.0 0.00 0.00 0.00 82 1014.2
20260902123528 62 12 0.0 4.0 0.00 0.00 0.00 83 1014.0
20260902123025 62 12 2.0 3.0 0.00 0.00 0.00 83 1014.2
20260902122523 61 13 1.0 3.0 0.00 0.00 0.00 84 1014.0
20260902122023 61 5 0.0 1.0 0.00 0.00 0.00 84 1014.0
20260902121523 61 5 0.0 0.0 0.00 0.00 0.00 84 1014.1
20260902121022 61 5 0.0 2.0 0.00 0.00 0.00 84 1014.0
20260902120521 61 5 0.0 2.0 0.00 0.00 0.00 84 1014.0
20260902120019 61 5 0.0 3.0 0.00 0.00 0.00 84 1014.0
20260902115525 60 5 0.0 3.0 0.00 0.00 0.00 84 1013.9
20260902115018 60 5 1.0 3.0 0.00 0.00 0.00 84 1013.9
20260902114524 60 360 0.0 4.0 0.00 0.00 0.00 84 1013.9
20260902114021 60 360 1.0 4.0 0.00 0.00 0.00 84 1013.9
20260902113517 60 5 2.0 3.0 0.00 0.00 0.00 84 1013.9
20260902113018 60 350 1.0 3.0 0.00 0.00 0.00 84 1013.9
20260902112518 60 355 0.0 2.0 0.00 0.00 0.00 84 1013.9
20260902112017 60 355 0.0 2.0 0.00 0.00 0.00 84 1014.1
20260902111517 60 355 0.0 1.0 0.00 0.00 0.00 84 1014.1
20260902111016 60 355 0.0 1.0 0.00 0.00 0.00 84 1013.8
20260902110518 59 355 0.0 1.0 0.00 0.00 0.00 84 1013.9
20260902110016 60 355 0.0 2.0 0.00 0.00 0.00 84 1013.9
20260902105515 60 355 0.0 4.0 0.00 0.00 0.00 84 1013.9
20260902105019 60 355 0.0 4.0 0.00 0.00 0.00 84 1013.7
20260902104517 60 355 0.0 1.0 0.00 0.00 0.00 85 1013.6
20260902104015 60 355 0.0 3.0 0.00 0.00 0.00 85 1013.6
20260902103514 60 355 1.0 3.0 0.00 0.00 0.00 85 1013.6
20260902103015 60 355 1.0 3.0 0.00 0.00 0.00 85 1013.8
20260902102514 60 355 1.0 3.0 0.00 0.00 0.00 86 1013.8
20260902102015 60 311 1.0 3.0 0.00 0.00 0.00 86 1013.8
20260902101515 59 241 0.0 3.0 0.00 0.00 0.00 86 1014.0
20260902101014 59 241 0.0 3.0 0.00 0.00 0.00 86 1013.9
20260902100513 59 232 0.0 0.0 0.00 0.00 0.00 86 1014.0
20260902100015 59 232 0.0 0.0 0.00 0.00 0.00 86 1014.0
20260902095512 59 232 0.0 0.0 0.00 0.00 0.00 86 1014.1
20260902095011 59 232 0.0 1.0 0.00 0.00 0.00 86 1014.1
20260902094511 59 232 0.0 1.0 0.00 0.00 0.00 85 1014.1
20260902094011 59 232 0.0 0.0 0.00 0.00 0.00 85 1014.0
20260902093511 59 232 0.0 0.0 0.00 0.00 0.00 85 1014.0
20260902093010 60 232 0.0 1.0 0.00 0.00 0.00 85 1014.0
20260902092511 60 232 0.0 2.0 0.00 0.00 0.00 85 1013.9
20260902092009 60 232 0.0 2.0 0.00 0.00 0.00 85 1013.9
20260902091510 60 232 1.0 2.0 0.00 0.00 0.00 85 1013.9
20260902091008 60 232 0.0 0.0 0.00 0.00 0.00 84 1013.8
20260902090507 60 232 0.0 0.0 0.00 0.00 0.00 84 1013.8
20260902090007 60 232 0.0 0.0 0.00 0.00 0.00 84 1013.8
20260902085505 60 232 0.0 0.0 0.00 0.00 0.00 84 1013.8
20260902085005 60 232 0.0 0.0 0.00 0.00 0.00 83 1013.6
20260902084513 61 232 0.0 1.0 0.00 0.00 0.00 83 1013.6
20260902084005 61 232 0.0 1.0 0.00 0.00 0.00 83 1013.6
20260902083504 61 232 0.0 0.0 0.00 0.00 0.00 83 1013.5
20260902083004 61 232 0.0 1.0 0.00 0.00 0.00 83 1013.4
20260902082504 61 232 0.0 1.0 0.00 0.00 0.00 83 1013.3
20260902082007 61 232 0.0 1.0 0.00 0.00 0.00 83 1013.3
20260902081504 61 232 0.0 2.0 0.00 0.00 0.00 83 1013.3
20260902081003 61 232 0.0 2.0 0.00 0.00 0.00 83 1013.2
20260902080503 61 228 0.0 0.0 0.00 0.00 0.00 84 1013.2
20260902080002 61 228 0.0 1.0 0.00 0.00 0.00 84 1013.1
20260902075501 61 228 0.0 2.0 0.00 0.00 0.00 84 1013.2
20260902075001 61 223 0.0 3.0 0.00 0.00 0.00 83 1013.2
20260902074614 62 223 1.0 3.0 0.00 0.00 0.00 83 1013.2
20260902074100 62 219 0.0 1.0 0.00 0.00 0.00 83 1013.2
20260902073559 62 219 0.0 0.0 0.00 0.00 0.00 83 1013.4
20260902073059 62 219 0.0 0.0 0.00 0.00 0.00 83 1013.4
20260902072601 62 219 0.0 2.0 0.00 0.00 0.00 83 1013.5
20260902072058 62 219 0.0 2.0 0.00 0.00 0.00 83 1013.5
20260902071558 62 215 0.0 0.0 0.00 0.00 0.00 83 1013.6
20260902071055 62 215 0.0 0.0 0.00 0.00 0.00 83 1013.6
20260902070555 62 215 0.0 0.0 0.00 0.00 0.00 83 1013.7
20260902070055 62 215 0.0 0.0 0.00 0.00 0.00 82 1013.6
20260902065554 62 215 0.0 0.0 0.00 0.00 0.00 82 1013.7
20260902065054 63 215 0.0 0.0 0.00 0.00 0.00 82 1013.7
20260902064553 63 215 0.0 0.0 0.00 0.00 0.00 81 1013.8
20260902064053 63 215 0.0 0.0 0.00 0.00 0.00 81 1013.7
20260902063551 63 215 0.0 0.0 0.00 0.00 0.00 80 1013.8
20260902063110 64 215 0.0 0.0 0.00 0.00 0.00 79 1013.7
20260902062550 64 215 0.0 0.0 0.00 0.00 0.00 78 1013.9
20260902062048 65 215 0.0 0.0 0.00 0.00 0.00 78 1013.9
20260902061552 65 215 0.0 0.0 0.00 0.00 0.00 77 1013.9
20260902061048 65 215 0.0 0.0 0.00 0.00 0.00 77 1013.9
20260902060545 65 215 0.0 0.0 0.00 0.00 0.00 76 1013.8
20260902055543 66 215 0.0 0.0 0.00 0.00 0.00 75 1013.8
20260902055043 66 215 0.0 0.0 0.00 0.00 0.00 74 1013.9
20260902054543 66 215 0.0 0.0 0.00 0.00 0.00 73 1013.8
20260902054042 67 215 0.0 0.0 0.00 0.00 0.00 72 1013.7
20260902053542 67 215 0.0 0.0 0.00 0.00 0.00 72 1013.7
20260902053039 67 215 0.0 0.0 0.00 0.00 0.00 71 1013.7
20260902052540 67 215 0.0 0.0 0.00 0.00 0.00 71 1013.7
20260902052037 67 215 0.0 0.0 0.00 0.00 0.00 71 1013.6
20260902051545 68 215 0.0 0.0 0.00 0.00 0.00 71 1013.5
20260902051035 68 215 0.0 0.0 0.00 0.00 0.00 70 1013.5
20260902050534 69 215 0.0 0.0 0.00 0.00 0.00 70 1013.6
20260902050033 69 215 0.0 2.0 0.00 0.00 0.00 69 1013.6
20260902045532 69 215 0.0 2.0 0.00 0.00 0.00 69 1013.6
20260902045032 69 215 0.0 2.0 0.00 0.00 0.00 68 1013.5
20260902044532 69 215 0.0 3.0 0.00 0.00 0.00 68 1013.4
20260902044033 70 215 1.0 3.0 0.00 0.00 0.00 67 1013.5
20260902043532 70 215 0.0 0.0 0.00 0.00 0.00 67 1013.6
20260902043034 70 215 0.0 0.0 0.00 0.00 0.00 67 1013.5
20260902042532 70 215 0.0 0.0 0.00 0.00 0.00 66 1013.6
20260902042032 70 215 0.0 0.0 0.00 0.00 0.00 65 1013.7
20260902041549 70 215 0.0 0.0 0.00 0.00 0.00 65 1013.7
20260902041031 71 215 0.0 2.0 0.00 0.00 0.00 64 1013.7
20260902040531 71 215 0.0 3.0 0.00 0.00 0.00 64 1013.9
20260902040031 71 215 0.0 3.0 0.00 0.00 0.00 63 1013.8
20260902035534 72 216 1.0 3.0 0.00 0.00 0.00 62 1013.7
20260902035031 72 242 0.0 2.0 0.00 0.00 0.00 61 1013.9
20260902034531 72 325 0.0 2.0 0.00 0.00 0.00 60 1013.9
20260902034030 72 341 0.0 0.0 0.00 0.00 0.00 60 1013.8
20260902033531 72 341 0.0 0.0 0.00 0.00 0.00 59 1013.9
20260902033030 72 341 0.0 0.0 0.00 0.00 0.00 59 1013.8
20260902032530 72 341 0.0 0.0 0.00 0.00 0.00 59 1013.7
20260902032029 72 341 0.0 0.0 0.00 0.00 0.00 58 1013.5
20260902031530 73 341 0.0 1.0 0.00 0.00 0.00 58 1013.4
20260902031030 73 341 0.0 1.0 0.00 0.00 0.00 57 1013.4
20260902030530 73 341 0.0 1.0 0.00 0.00 0.00 57 1013.4
20260902030029 73 341 0.0 0.0 0.00 0.00 0.00 56 1013.5
20260902025530 74 341 0.0 0.0 0.00 0.00 0.00 55 1013.5
20260902025029 74 341 0.0 1.0 0.00 0.00 0.00 55 1013.5
20260902024529 74 341 0.0 1.0 0.00 0.00 0.00 55 1013.6
20260902024028 74 341 0.0 1.0 0.00 0.00 0.00 55 1013.6
20260902023528 74 341 0.0 1.0 0.00 0.00 0.00 54 1013.5
20260902023028 74 341 0.0 1.0 0.00 0.00 0.00 54 1013.6
20260902022528 74 340 0.0 0.0 0.00 0.00 0.00 54 1013.5
20260902022027 74 340 0.0 1.0 0.00 0.00 0.00 54 1013.4
20260902021527 75 340 0.0 2.0 0.00 0.00 0.00 53 1013.4
20260902021027 75 340 0.0 2.0 0.00 0.00 0.00 54 1013.5
20260902020528 75 340 0.0 3.0 0.00 0.00 0.00 53 1013.4
20260902020029 75 341 1.0 3.0 0.00 0.00 0.00 52 1013.3
20260902015526 75 341 0.0 2.0 0.00 0.00 0.00 52 1013.4
20260902015028 75 341 0.0 3.0 0.00 0.00 0.00 52 1013.3
20260902014527 75 341 1.0 5.0 0.00 0.00 0.00 52 1013.3
20260902014027 76 342 1.0 5.0 0.00 0.00 0.00 52 1013.3
20260902013526 76 325 2.0 6.0 0.00 0.00 0.00 52 1013.4
20260902013026 76 331 1.0 6.0 0.00 0.00 0.00 52 1013.2
20260902012528 76 333 2.0 8.0 0.00 0.00 0.00 52 1013.2
20260902012029 76 320 1.0 8.0 0.00 0.00 0.00 51 1013.2
20260902011526 76 323 2.0 8.0 0.00 0.00 0.00 51 1013.3
20260902011029 77 310 3.0 8.0 0.00 0.00 0.00 51 1013.2
20260902010525 77 323 2.0 4.0 0.00 0.00 0.00 51 1013.2
20260902010030 77 323 1.0 5.0 0.00 0.00 0.00 51 1013.3
20260902005525 77 300 2.0 5.0 0.00 0.00 0.00 51 1013.3
20260902005025 77 291 1.0 5.0 0.00 0.00 0.00 51 1013.3
20260902004530 78 270 2.0 5.0 0.00 0.00 0.00 51 1013.3
20260902004003 78 292 1.0 6.0 0.00 0.00 0.00 50 1013.3
20260902003503 78 281 3.0 6.0 0.00 0.00 0.00 50 1013.5
20260902003010 78 284 1.0 5.0 0.00 0.00 0.00 50 1013.3
20260902002502 78 286 2.0 6.0 0.00 0.00 0.00 50 1013.3
20260902002002 78 284 2.0 6.0 0.00 0.00 0.00 50 1013.2
20260902001502 78 272 2.0 7.0 0.00 0.00 0.00 50 1013.2
20260902001003 78 297 1.0 6.0 0.00 0.00 0.00 50 1013.3
20260902000502 78 291 2.0 8.0 0.00 0.00 0.00 49 1013.3
20260902000004 78 321 3.0 8.0 0.00 0.00 0.00 49 1013.3
20260901235502 79 261 3.0 8.0 0.00 0.00 0.00 49 1013.3
20260901235001 79 303 2.0 10.0 0.00 0.00 0.00 49 1013.3
20260901234502 79 298 3.0 10.0 0.00 0.00 0.00 48 1013.2
20260901234001 79 310 4.0 9.0 0.00 0.00 0.00 49 1013.2
20260901233500 79 291 4.0 9.0 0.00 0.00 0.00 48 1013.3
20260901233101 79 318 2.0 7.0 0.00 0.00 0.00 48 1013.4
20260901232600 79 300 2.0 7.0 0.00 0.00 0.00 47 1013.4
20260901232100 80 277 4.0 10.0 0.00 0.00 0.00 47 1013.3
20260901231604 80 253 4.0 10.0 0.00 0.00 0.00 47 1013.3
20260901231059 80 250 4.0 10.0 0.00 0.00 0.00 46 1013.4
20260901230559 80 271 4.0 10.0 0.00 0.00 0.00 47 1013.3
20260901230059 80 276 5.0 10.0 0.00 0.00 0.00 46 1013.4
20260901225559 80 281 4.0 10.0 0.00 0.00 0.00 46 1013.5
20260901225058 80 260 3.0 10.0 0.00 0.00 0.00 46 1013.4
20260901224605 80 286 3.0 11.0 0.00 0.00 0.00 46 1013.5
20260901224059 80 271 4.0 10.0 0.00 0.00 0.00 45 1013.5
20260901223558 80 286 4.0 11.0 0.00 0.00 0.00 47 1013.6
20260901223059 81 317 5.0 11.0 0.00 0.00 0.00 45 1013.5
20260901222558 81 265 3.0 11.0 0.00 0.00 0.00 46 1013.5
20260901222058 81 315 4.0 11.0 0.00 0.00 0.00 45 1013.7
20260901221607 81 286 4.0 10.0 0.00 0.00 0.00 45 1013.7
20260901221058 80 273 3.0 10.0 0.00 0.00 0.00 45 1013.9
20260901220556 80 300 4.0 12.0 0.00 0.00 0.00 45 1013.8
20260901220056 80 267 5.0 12.0 0.00 0.00 0.00 44 1013.8
20260901215558 80 276 4.0 12.0 0.00 0.00 0.00 44 1013.9
20260901215056 81 257 2.0 12.0 0.00 0.00 0.00 44 1013.7
20260901214557 80 262 6.0 12.0 0.00 0.00 0.00 43 1013.6
20260901214056 80 273 6.0 12.0 0.00 0.00 0.00 43 1013.5
20260901213600 80 240 4.0 10.0 0.00 0.00 0.00 44 1013.5
20260901213059 80 273 3.0 11.0 0.00 0.00 0.00 45 1013.5
20260901212558 80 267 6.0 11.0 0.00 0.00 0.00 45 1013.5
20260901212056 80 276 3.0 11.0 0.00 0.00 0.00 44 1013.5
20260901211556 81 290 4.0 10.0 0.00 0.00 0.00 44 1013.6
20260901211055 81 250 3.0 10.0 0.00 0.00 0.00 44 1013.6
20260901210558 81 299 4.0 11.0 0.00 0.00 0.00 43 1013.6
20260901210122 81 255 6.0 11.0 0.00 0.00 0.00 43 1013.7
20260901205554 81 289 2.0 10.0 0.00 0.00 0.00 43 1013.7
20260901205054 81 238 6.0 10.0 0.00 0.00 0.00 43 1013.6
20260901204553 82 228 5.0 12.0 0.00 0.00 0.00 41 1013.5
20260901204053 82 262 4.0 12.0 0.00 0.00 0.00 42 1013.5
20260901203554 82 261 4.0 12.0 0.00 0.00 0.00 42 1013.6
20260901203054 82 303 6.0 14.0 0.00 0.00 0.00 41 1013.5
20260901202554 82 257 2.0 14.0 0.00 0.00 0.00 42 1013.6
20260901202056 82 310 6.0 15.0 0.00 0.00 0.00 42 1013.5
20260901201554 83 307 4.0 15.0 0.00 0.00 0.00 43 1013.5
20260901201054 83 335 2.0 10.0 0.00 0.00 0.00 43 1013.5
20260901200554 83 303 2.0 9.0 0.00 0.00 0.00 44 1013.4
20260901200052 83 291 2.0 9.0 0.00 0.00 0.00 43 1013.4
20260901195552 83 226 2.0 11.0 0.00 0.00 0.00 45 1013.4
20260901195051 82 257 4.0 11.0 0.00 0.00 0.00 44 1013.6
20260901194602 82 237 3.0 12.0 0.00 0.00 0.00 45 1013.5
20260901194051 82 269 2.0 12.0 0.00 0.00 0.00 44 1013.7
20260901193555 82 276 3.0 11.0 0.00 0.00 0.00 46 1013.7
20260901193053 82 269 2.0 11.0 0.00 0.00 0.00 45 1013.8